Regional Weather Roundup
Issued by NWS

Home | Current Version | Previous Version | Text Only | Print | Product List | Glossary On
Versions: 1 2 3 4 5 6 7 8 9 10 11 12 13 14 15 16 17 18 19 20 21 22 23 24 25 26 27 28 29 30 31 32 33 34 35 36 37 38 39 40 41 42 43 44 45 46 47 48 49 50
000
ASUS45 KABQ 102210
RWRNM
NEW MEXICO REGIONAL WEATHER ROUNDUP
NATIONAL WEATHER SERVICE ALBUQUERQUE NM
300 PM MST WED FEB 10 2016

NOTE: "FAIR" MEANS FEW OR NO CLOUDS BELOW 12,000 FEET AGL WITH NO
       SIGNIFICANT WEATHER OR OBSTRUCTIONS TO VISION.

      THIS PRODUCT IS RELEASED AS TWO VERSIONS.  ONE VERSION NEAR
      THE TOP OF THE HOUR CONTAINING PRELIMINARY DATA FROM ALBUQUERQUE
      AND OTHER STATIONS.  A FINAL VERSION WITH ADDITIONAL DATA IS
      ISSUED ABOUT 10 MINUTES AFTER THE HOUR.

NMZ501-503-504-510>518-102300-
NORTHWEST PLATEAU/NORTHCENTRAL MOUNTAINS

CITY           SKY/WX    TMP DP  RH WIND       PRES   REMARKS
FARMINGTON     SUNNY     54  24  31 W9        30.34F
LOS ALAMOS     SUNNY     54  19  24 S5        30.35F
SANTA FE       SUNNY     59  17  19 SW13G18   30.31F
TAOS           SUNNY     52  18  25 CALM      30.34F
ANGEL FIRE     FAIR      46  12  25 W21       30.34F

$$
NMZ402-403-502-505>509-102300-
WESTCENTRAL MOUNTAINS/SOUTHWEST MOUNTAINS

CITY           SKY/WX    TMP DP  RH WIND       PRES   REMARKS
GALLUP         SUNNY     61  20  20 SW5       30.36F
GRANTS         SUNNY     65   9  11 N10G20    30.36F
SILVER CITY      N/A     66  14  13 S7        30.33F

$$
NMZ407-409-411-412-102300-
SOUTHERN DESERTS

CITY           SKY/WX    TMP DP  RH WIND       PRES   REMARKS
LORDSBURG      FAIR      68  18  14 CALM      30.27F
DEMING         SUNNY     69  13  11 SW5       30.28F
LAS CRUCES     SUNNY     69  15  13 SW5       30.29F
HOLLOMAN AFB   SUNNY     69  16  13 S1        30.26F
ALAMOGORDO     SUNNY     68  16  13 N3        30.28F
T OR C         SUNNY     67  13  12 S12       30.27F

$$
NMZ519>523-102300-
CENTRAL VALLEYS/CENTRAL HIGHLANDS

CITY           SKY/WX    TMP DP  RH WIND       PRES   REMARKS
ALBUQUERQUE    MOSUNNY   60  16  18 VRB3      30.32F
DOUBLE EAGLE   SUNNY     63  19  19 W9        30.33F
MORIARTY ARPT  FAIR      63  11  13 NW8       30.31F
CLINES CORNERS SUNNY     56  18  22 NW16      30.30F
BELEN          FAIR      62  15  15 N6        30.30F
SOCORRO        FAIR      62  18  17 CALM      30.30F

$$
NMZ524>526-539-540-102300-
SOUTHCENTRAL MOUNTAINS

CITY           SKY/WX    TMP DP  RH WIND       PRES   REMARKS
RUIDOSO        SUNNY     59  10  14 NW14G23   30.34S

$$
NMZ527>531-102300-
NORTHEAST HIGHLANDS/NORTHEAST PLAINS

CITY           SKY/WX    TMP DP  RH WIND       PRES   REMARKS
LAS VEGAS      SUNNY     66   6   9 N15       30.24F
RATON          SUNNY     68   4   8 SE6       30.18F
CLAYTON        SUNNY     76   0   5 MISG      30.11F

$$
NMZ532>537-102300-
EASTCENTRAL PLAINS

CITY           SKY/WX    TMP DP  RH WIND       PRES   REMARKS
TUCUMCARI      SUNNY     78   3   5 W12G18    30.09F
CANNON AFB     SUNNY     74  13  10 W18       30.14F
CLOVIS AIRPORT SUNNY     73  18  12 W14G24    30.16F

$$
NMZ028-029-538-102300-
SOUTHEAST PLAINS

CITY           SKY/WX    TMP DP  RH WIND       PRES   REMARKS
ROSWELL        SUNNY     74  18  12 S10       30.18F
ARTESIA        SUNNY     75  19  12 CALM      30.17F
CARLSBAD       SUNNY     75  20  12 S8        30.18F
HOBBS          SUNNY     73  14  10 SW12G18   30.21F


$$



USA.gov is the U.S. government's official web portal to all federal, state and local government web resources and services.